storypick.com alexa rank chart, storypick.com alexa rank daily changes

storypick.com alexa rank chart, storypick.com alexa rank daily changes

storypick.com
Actual rank:
31 838

RANK HISTORY

Date Rank Diff
2018/02/22 31 838 -15 351
2018/02/21 47 189 +10 673
2018/02/20 36 516 -6 171
2018/02/19 42 687 +8 562
2018/02/18 34 125 -11 099
2018/02/17 45 224 +7 271
2018/02/16 37 953 -11 276
2018/02/15 49 229 +19 335
2018/02/14 29 894 -25 554
2018/02/13 55 448 +14 013
2018/02/12 41 435 +7 495
2018/02/11 33 940 +6 757
2018/02/10 27 183 +3 284
2018/02/09 23 899 -2 914
2018/02/08 26 813 -3 355
2018/02/07 30 168 +2 247
2018/02/06 27 921 +9 223
2018/02/05 18 698 +1 501
2018/02/04 17 197 -8 078
2018/02/03 25 275 +4 970
2018/02/02 20 305 -4 698
2018/02/01 25 003 -17 693
2018/01/31 42 696 +4 375
2018/01/30 38 321 +322
2018/01/29 37 999 +77
2018/01/28 37 922 -133
2018/01/27 38 055 +199
2018/01/26 37 856 +248
2018/01/25 37 608 +248
2018/01/24 37 360 -224
2018/01/23 37 584 +478
2018/01/22 37 106 +231
2018/01/21 36 875 +155
2018/01/20 36 720 +52
2018/01/19 36 668 -333
2018/01/18 37 001 -480
2018/01/17 37 481 -375
2018/01/16 37 856 +438
2018/01/15 37 418 +371
2018/01/14 37 047 -30
2018/01/13 37 077 +230
2018/01/12 36 847 +596
2018/01/11 36 251 +562
2018/01/10 35 689 +725
2018/01/09 34 964 +651
2018/01/08 34 313 +178
2018/01/07 34 135 +245
2018/01/06 33 890 +2
2018/01/05 33 888 -359
2018/01/04 34 247 +33
2018/01/03 34 214 +919
2018/01/02 33 295 +506
2018/01/01 32 789 -37
2017/12/31 32 826 +109
2017/12/30 32 717 -99
2017/12/29 32 816 -262
2017/12/28 33 078 +105
2017/12/27 32 973 -26
2017/12/26 32 999 -76
2017/12/25 33 075 -93
2017/12/24 33 168

WIDGET FOR YOUR SITE

DOMAINS WITH THE NEAREST RANK

Domain Rank
uniroma2.it 31 833
phothutaw.com 31 834
sothebys.com 31 835
saxo.com 31 836
toptoon.com.tw 31 837
storypick.com 31 838
searchtp.com 31 839
landwatch.com 31 840
c0derwatch.com 31 841
bpm-power.com 31 842
voidtools.com 31 843

DOMAINS WITH THE NEAREST RANK BY TLD .com

Domain Rank
mailxmail.com 31 830
universoformulas.com 31 831
phothutaw.com 31 834
sothebys.com 31 835
saxo.com 31 836
storypick.com 31 838
searchtp.com 31 839
landwatch.com 31 840
c0derwatch.com 31 841
bpm-power.com 31 842
voidtools.com 31 843